This is the latest recevied weather packets stored in our database for station/object WX2NJ-13. If no packets are shown the sender has not sent any weather packets the latest 10 day(s).
| Time | Temp. | Humidity | Pressure | Rain* | Wind** | Luminosity | Snow |
|---|---|---|---|---|---|---|---|
| 1777645153 | 13.89° C | 70% | 1014.6 hPa | 0 mm | 0.45 m/s, 290° | - | - |
| 1777644854 | 13.89° C | 73% | 1014.5 hPa | 0 mm | 1.34 m/s, 277° | - | - |
| 1777644556 | 13.33° C | 76% | 1014.6 hPa | 0 mm | 1.34 m/s, 273° | - | - |
| 1777644255 | 13.33° C | 79% | 1014.5 hPa | 0 mm | 0.89 m/s, 8° | - | - |
| 1777643956 | 12.78° C | 81% | 1014.6 hPa | 0 mm | 0.45 m/s, 129° | - | - |
| 1777643657 | 12.22° C | 82% | 1014.5 hPa | 0 mm | 0 m/s | - | - |
| 1777643356 | 12.22° C | 85% | 1014.5 hPa | 0 mm | 0 m/s | - | - |
| 1777643058 | 11.67° C | 86% | 1014.6 hPa | 0 mm | 0.45 m/s, 225° | - | - |
| 1777642759 | 11.11° C | 88% | 1014.6 hPa | 0 mm | 0.45 m/s, 15° | - | - |
| 1777642458 | 11.11° C | 90% | 1014.6 hPa | 0 mm | 0 m/s | - | - |
| 1777642159 | 10.56° C | 92% | 1014.7 hPa | 0 mm | 0.45 m/s, 20° | - | - |
| 1777641861 | 10° C | 94% | 1014.7 hPa | 0 mm | 0.45 m/s, 190° | - | - |
| 1777641559 | 10° C | 95% | 1014.7 hPa | 0 mm | 0.89 m/s, 89° | - | - |
| 1777641261 | 9.44° C | 95% | 1014.7 hPa | 0 mm | 0.45 m/s, 284° | - | - |
| 1777640962 | 9.44° C | 96% | 1014.7 hPa | 0 mm | 0.45 m/s, 271° | - | - |
| 1777640661 | 8.89° C | 96% | 1014.7 hPa | 0 mm | 0.45 m/s, 188° | - | - |
| 1777640362 | 8.89° C | 96% | 1014.6 hPa | 0 mm | 0 m/s | - | - |
| 1777640064 | 8.89° C | 96% | 1014.8 hPa | 0 mm | 0.89 m/s, 245° | - | - |
| 1777639763 | 8.89° C | 96% | 1014.6 hPa | 0 mm | 0.45 m/s, 277° | - | - |
| 1777639464 | 8.89° C | 97% | 1014.7 hPa | 0 mm | 0.45 m/s, 31° | - | - |
| 1777639166 | 8.33° C | 97% | 1014.7 hPa | 0 mm | 0 m/s | - | - |
| 1777638865 | 8.33° C | 97% | 1014.8 hPa | 0 mm | 0 m/s | - | - |
| 1777638566 | 8.33° C | 97% | 1014.8 hPa | 0 mm | 0.89 m/s, 180° | - | - |
| 1777638267 | 8.33° C | 97% | 1014.9 hPa | 0 mm | 0 m/s | - | - |
| 1777637966 | 7.78° C | 97% | 1014.8 hPa | 0 mm | 0 m/s | - | - |
* Rain latest hour (hover to see other rain measurements)
** Current wind speed in m/s (hover to see current wind gust speed)